Home > Weather > Schweinfurt > Past weeks

Flag for Germany Weather for the Past 2 Weeks in Schweinfurt, Bavaria, Germany

Now
28 °F

Clear.


Feels Like: 28 °F
Forecast: 33 / 59 °F
Wind: No wind

Location: Illesheim

Current Time: Apr 29, 2016 at 4:03:21 AM

Latest Report: Apr 29, 2016 at 2:58 AM


Visibility: N/A

Pressure: 30.11 "Hg

Humidity: 93%

Dew Point: 27 °F

Location of SchweinfurtLocation

Historic Weather in Schweinfurt — Graph

°F

Schweinfurt Temperature Yesterday

Maximum temperature yesterday: 48 °F (at 4:58 PM)
Minimum temperature yesterday: 31 °F (at 5:58 AM)
Average temperature yesterday: 40 °F

High & Low Weather Summary for the Past Weeks

 TemperatureHumidityPressure
High65 °F (Apr 21, 5:58 PM)100% (Apr 14, 2:58 AM)30.46 "Hg (Apr 14, 2:58 AM)
Low29 °F (Apr 24, 6:58 AM)33% (Apr 21, 3:58 PM)29.53 "Hg (Apr 26, 5:59 AM)
Average44 °F77%29.96 "Hg
* Reported Apr 14 1:58 AM — Apr 29 1:58 AM, Schweinfurt, Weather by CustomWeather, © 2016

Note: Actual official high and low records may vary slightly from our data, if they occured in-between our weather recording intervals... More about our weather records

Advertising

Schweinfurt Weather History for the Previous 24 Hours

Scroll right to see more
 ConditionsComfort  
Time TempWeatherWind HumidityBarometerVisibility
1:58 AM
Fri, Apr 29
29 °FClear.1 mph87%30.11 "HgN/A
12:58 AM32 °FClear.No wind83%30.11 "HgN/A
11:58 PM
Thu, Apr 28
33 °FClear.No wind80%30.09 "HgN/A
10:58 PM36 °FClear.5 mph75%30.09 "HgN/A
9:58 PM34 °FClear.1 mph81%30.08 "HgN/A
8:58 PM40 °FSunny.5 mph70%30.07 "HgN/A
7:58 PM44 °FSunny.5 mph61%30.06 "HgN/A
6:58 PM48 °FSunny.8 mph46%30.03 "HgN/A
5:58 PM48 °FSunny.5 mph52%30.04 "HgN/A
4:58 PM48 °FPassing clouds.12 mph54%30.03 "HgN/A
3:58 PM46 °FBroken clouds.9 mph62%30.03 "HgN/A
2:58 PM45 °FBroken clouds.5 mph66%30.03 "HgN/A
1:58 PM44 °FScattered clouds.3 mph66%30.03 "HgN/A
12:58 PM43 °FBroken clouds.12 mph71%30.03 "HgN/A
11:58 AM43 °FBroken clouds.7 mph66%30.03 "HgN/A
10:58 AM43 °FMostly cloudy.7 mph70%30.03 "HgN/A
9:58 AM42 °FScattered clouds.10 mph75%30.01 "HgN/A
8:58 AM39 °FOvercast.9 mph81%30.01 "HgN/A
7:58 AM37 °FPartly sunny.7 mph86%30.00 "HgN/A
6:58 AM33 °FPassing clouds.5 mph92%29.99 "HgN/A
5:58 AM31 °FClear.6 mph92%29.97 "HgN/A
4:58 AM34 °FPassing clouds.7 mph93%29.97 "HgN/A
Weather by CustomWeather, © 2016

See weather overviewHow to use our weather pages